Location: Peterborough
(44.3091°N, 78.3197°W)
Time: 20:37:52
(UTC-04:00)

deb Explorer IX - Visible Passes

Search period start: 20 May 2024 00:00
Search period end: 30 May 2024 00:00
Orbit: 513 x 892 km, 38.7° (Epoch: 20 May)

Date Brightness Start Highest point End Pass type
(mag) Time Alt. Az. Time Alt. Az. Time Alt. Az.
20 May ? 04:27:33 15° SSW 04:27:34 15° SSW 04:29:55 10° SSE visible
21 May ? 22:56:40 10° SW 22:57:48 15° SSW 22:57:48 15° SSW visible
22 May ? 21:56:51 10° SSW 22:00:30 21° SSE 22:01:58 18° SE visible
22 May ? 23:39:48 10° WSW 23:40:49 15° SW 23:40:49 15° SW visible
23 May ? 22:39:28 10° SW 22:43:53 33° SSE 22:44:27 32° SSE visible
24 May ? 21:39:11 10° SW 21:43:35 28° SSE 21:47:34 10° ESE visible
24 May ? 23:22:44 10° WSW 23:26:27 37° SSW 23:26:27 37° SSW visible
25 May ? 22:22:06 10° WSW 22:26:51 40° S 22:29:18 22° ESE visible
26 May ? 00:06:12 10° WSW 00:08:04 21° WSW 00:08:04 21° WSW visible
26 May ? 21:21:27 10° SW 21:26:19 35° SSE 21:30:41 10° ESE visible
26 May ? 23:05:22 10° WSW 23:10:06 43° S 23:10:38 41° SSE visible
27 May ? 22:04:27 10° WSW 22:09:28 44° S 22:13:00 16° ESE visible
27 May ? 23:48:47 10° W 23:51:45 27° SW 23:51:45 27° SW visible
28 May ? 22:47:41 10° WSW 22:52:31 41° S 22:53:57 32° SSE visible
29 May ? 00:32:30 10° WSW 00:32:40 11° WSW 00:32:40 11° WSW visible
29 May ? 21:46:32 10° WSW 21:51:42 45° S 21:56:01 12° ESE visible
29 May ? 23:31:03 10° W 23:34:44 27° SW 23:34:44 27° SW visible
